Tracking 28790 objects as of 18-Apr-2024
HD Live streaming from Space Station
objects crossing your sky now

COSMOS 2251 DEB

Track COSMOS 2251 DEB now!
10-day predictions


NORAD ID: 37269
Int'l Code: 1993-036BHH
Perigee: 747.4 km
Apogee: 915.5 km
Inclination: 74.2 °
Period: 101.4 minutes
Semi major axis: 7202 km
RCS: 0.0006 m2 (small)
Launch date: June 16, 1993
Source: Commonwealth of Independent States (former USSR) (CIS)
Launch site: PLESETSK MISSILE AND SPACE COMPLEX (PKMTR)

Note: This is SATELLITE DEBRIS
Your satellite tracking list
Your tracking list is empty




NASA's NSSDC Master Catalog

Two Line Element Set (TLE):
1 37269U 93036BHH 24106.53948504  .00008152  00000-0  35644-2 0  9999
2 37269  74.1709  34.5805 0116663  80.3125 281.1175 14.20315423570657
Source of the keplerian elements: AFSPC